When you browse on this site, cookies collect data to enhance your experience and personalize the content and advertising you see.
Visit our Privacy Policy to learn more. By continuing to use the site, you agree to this use of cookies and data.
  • In Deutschland
  • Länderverzeichnis
  • Für 7 Tage
  • Wassertemperatur
  • Wetterkarte
  • Widgets
  • user-avatar
    Anmelden

    Stündliche Wetter Korçe

    Heute, 23 August, Freitag

    Zeit Temperatur Niederschläge Wind Luftdruck Luftfeuchtigkeit
    00:00 +20°C° 0 mm 1 m/S 670 mmHg 55%
    01:00 +19°C° 0 mm 1 m/S 670 mmHg 57%
    02:00 +19°C° 0 mm 1 m/S 670 mmHg 58%
    03:00 +19°C° 0 mm 1 m/S 670 mmHg 59%
    04:00 +19°C° 0 mm 1 m/S 670 mmHg 59%
    05:00 +21°C° 0 mm 1 m/S 671 mmHg 54%
    06:00 +23°C° 0 mm 1 m/S 671 mmHg 49%
    07:00 +25°C° 0 mm 2 m/S 672 mmHg 44%
    08:00 +27°C° 0 mm 2 m/S 673 mmHg 40%
    09:00 +29°C° 0 mm 2 m/S 673 mmHg 35%
    10:00 +30°C° 0 mm 2 m/S 674 mmHg 30%
    11:00 +30°C° 0 mm 2 m/S 673 mmHg 31%
    12:00 +30°C° 0 mm 2 m/S 673 mmHg 31%
    13:00 +30°C° 0 mm 2 m/S 672 mmHg 31%
    14:00 +29°C° 0 mm 2 m/S 672 mmHg 34%
    15:00 +28°C° 0 mm 2 m/S 671 mmHg 37%
    16:00 +27°C° 0 mm 2 m/S 671 mmHg 40%
    17:00 +26°C° 0 mm 2 m/S 671 mmHg 44%
    18:00 +24°C° 0 mm 2 m/S 670 mmHg 48%
    19:00 +23°C° 0 mm 1 m/S 670 mmHg 51%
    20:00 +22°C° 0 mm 1 m/S 670 mmHg 53%
    21:00 +22°C° 0 mm 1 m/S 670 mmHg 54%
    22:00 +21°C° 0 mm 1 m/S 670 mmHg 55%
    23:00 +21°C° 0.1 mm 1 m/S 670 mmHg 57%

    Morgen, 24 August, Samstag

    Zeit Temperatur Niederschläge Wind Luftdruck Luftfeuchtigkeit
    00:00 +20°C° 0.1 mm 1 m/S 670 mmHg 58%
    01:00 +19°C° 0.1 mm 1 m/S 670 mmHg 60%
    02:00 +19°C° 0 mm 1 m/S 669 mmHg 60%
    03:00 +19°C° 0 mm 1 m/S 669 mmHg 60%
    04:00 +19°C° 0 mm 1 m/S 669 mmHg 60%
    05:00 +20°C° 0 mm 2 m/S 670 mmHg 55%
    06:00 +21°C° 0 mm 2 m/S 670 mmHg 49%
    07:00 +24°C° 0 mm 2 m/S 671 mmHg 44%
    08:00 +26°C° 0 mm 2 m/S 671 mmHg 39%
    09:00 +28°C° 0 mm 3 m/S 672 mmHg 34%
    10:00 +30°C° 0 mm 3 m/S 672 mmHg 29%
    11:00 +31°C° 0 mm 3 m/S 672 mmHg 27%
    12:00 +31°C° 0 mm 3 m/S 672 mmHg 26%
    13:00 +31°C° 0 mm 3 m/S 671 mmHg 24%
    14:00 +30°C° 0 mm 3 m/S 671 mmHg 27%
    15:00 +29°C° 0 mm 3 m/S 671 mmHg 30%
    16:00 +29°C° 0 mm 3 m/S 670 mmHg 32%
    17:00 +27°C° 0 mm 2 m/S 670 mmHg 38%
    18:00 +25°C° 0 mm 2 m/S 670 mmHg 43%
    19:00 +23°C° 0 mm 1 m/S 669 mmHg 49%
    20:00 +22°C° 0 mm 1 m/S 669 mmHg 50%
    21:00 +21°C° 0 mm 1 m/S 669 mmHg 52%
    22:00 +20°C° 0 mm 1 m/S 669 mmHg 54%
    23:00 +20°C° 0 mm 1 m/S 669 mmHg 54%

    übermorgen, 25 August, Sonntag

    Zeit Temperatur Niederschläge Wind Luftdruck Luftfeuchtigkeit
    00:00 +19°C° 0 mm 1 m/S 668 mmHg 53%
    01:00 +19°C° 0 mm 1 m/S 668 mmHg 53%
    02:00 +18°C° 0 mm 2 m/S 668 mmHg 54%
    03:00 +17°C° 0 mm 2 m/S 668 mmHg 54%
    04:00 +17°C° 0 mm 2 m/S 668 mmHg 55%
    05:00 +19°C° 0 mm 2 m/S 668 mmHg 51%
    06:00 +21°C° 0 mm 2 m/S 669 mmHg 48%
    07:00 +24°C° 0 mm 2 m/S 669 mmHg 44%
    08:00 +26°C° 0 mm 2 m/S 670 mmHg 38%
    09:00 +28°C° 0 mm 2 m/S 671 mmHg 33%
    10:00 +31°C° 0 mm 2 m/S 671 mmHg 28%
    11:00 +31°C° 0 mm 2 m/S 671 mmHg 26%
    12:00 +31°C° 0 mm 2 m/S 671 mmHg 25%
    13:00 +31°C° 0 mm 2 m/S 671 mmHg 23%
    14:00 +30°C° 0.1 mm 2 m/S 670 mmHg 28%
    15:00 +29°C° 0.1 mm 3 m/S 669 mmHg 32%
    16:00 +27°C° 0.1 mm 3 m/S 669 mmHg 36%
    17:00 +25°C° 0.1 mm 2 m/S 669 mmHg 43%
    18:00 +24°C° 0.1 mm 2 m/S 668 mmHg 50%
    19:00 +22°C° 0.1 mm 1 m/S 668 mmHg 56%
    20:00 +21°C° 0.1 mm 1 m/S 668 mmHg 60%
    21:00 +20°C° 0.1 mm 1 m/S 668 mmHg 64%
    22:00 +18°C° 0.1 mm 2 m/S 668 mmHg 68%
    23:00 +18°C° 0 mm 2 m/S 668 mmHg 67%

    26 August, Montag

    Zeit Temperatur Niederschläge Wind Luftdruck Luftfeuchtigkeit
    00:00 +17°C° 0 mm 2 m/S 668 mmHg 67%
    01:00 +17°C° 0 mm 2 m/S 667 mmHg 66%
    02:00 +17°C° 0 mm 2 m/S 667 mmHg 63%
    03:00 +17°C° 0 mm 2 m/S 667 mmHg 60%
    04:00 +17°C° 0 mm 2 m/S 667 mmHg 56%
    05:00 +19°C° 0 mm 2 m/S 668 mmHg 52%
    06:00 +20°C° 0 mm 2 m/S 669 mmHg 47%
    07:00 +23°C° 0 mm 2 m/S 669 mmHg 43%
    08:00 +26°C° 0 mm 2 m/S 670 mmHg 38%
    09:00 +28°C° 0 mm 2 m/S 671 mmHg 32%
    10:00 +30°C° 0 mm 2 m/S 671 mmHg 27%
    11:00 +30°C° 0 mm 2 m/S 671 mmHg 26%
    12:00 +30°C° 0 mm 2 m/S 671 mmHg 26%
    13:00 +30°C° 0 mm 2 m/S 670 mmHg 25%
    14:00 +28°C° 0.1 mm 2 m/S 670 mmHg 32%
    15:00 +27°C° 0.1 mm 2 m/S 669 mmHg 39%
    16:00 +25°C° 0.1 mm 2 m/S 669 mmHg 46%
    17:00 +24°C° 0 mm 1 m/S 669 mmHg 49%
    18:00 +23°C° 0 mm 1 m/S 669 mmHg 52%
    19:00 +22°C° 0 mm 1 m/S 669 mmHg 55%
    20:00 +21°C° 0 mm 1 m/S 669 mmHg 56%
    21:00 +21°C° 0 mm 1 m/S 669 mmHg 57%
    22:00 +20°C° 0 mm 1 m/S 669 mmHg 58%
    23:00 +20°C° 0 mm 1 m/S 669 mmHg 58%

    27 August, Dienstag

    Zeit Temperatur Niederschläge Wind Luftdruck Luftfeuchtigkeit
    00:00 +20°C° 0 mm 1 m/S 669 mmHg 57%
    01:00 +20°C° 0 mm 1 m/S 668 mmHg 57%
    02:00 +20°C° 0 mm 1 m/S 668 mmHg 55%
    03:00 +20°C° 0 mm 1 m/S 668 mmHg 53%
    04:00 +20°C° 0 mm 1 m/S 668 mmHg 51%
    05:00 +21°C° 0 mm 1 m/S 669 mmHg 48%
    06:00 +22°C° 0 mm 1 m/S 669 mmHg 46%
    07:00 +23°C° 0 mm 1 m/S 670 mmHg 43%
    08:00 +26°C° 0 mm 1 m/S 670 mmHg 38%
    09:00 +28°C° 0 mm 1 m/S 671 mmHg 32%
    10:00 +30°C° 0 mm 1 m/S 672 mmHg 27%
    11:00 +28°C° 0 mm 2 m/S 671 mmHg 33%
    12:00 +27°C° 0 mm 2 m/S 670 mmHg 38%
    13:00 +25°C° 0 mm 3 m/S 670 mmHg 43%
    14:00 +24°C° 0.1 mm 2 m/S 670 mmHg 48%
    15:00 +23°C° 0.1 mm 2 m/S 669 mmHg 52%
    16:00 +22°C° 0.1 mm 1 m/S 669 mmHg 56%
    17:00 +22°C° 0.1 mm 1 m/S 669 mmHg 58%
    18:00 +21°C° 0.1 mm 1 m/S 669 mmHg 61%
    19:00 +20°C° 0.1 mm 1 m/S 669 mmHg 63%
    20:00 +20°C° 0.1 mm 1 m/S 669 mmHg 66%
    21:00 +19°C° 0.1 mm 1 m/S 669 mmHg 68%
    22:00 +17°C° 0.1 mm 2 m/S 669 mmHg 70%
    23:00 +17°C° 0 mm 2 m/S 669 mmHg 72%

    28 August, Mittwoch

    Zeit Temperatur Niederschläge Wind Luftdruck Luftfeuchtigkeit
    00:00 +16°C° 0 mm 1 m/S 668 mmHg 73%
    01:00 +16°C° 0 mm 1 m/S 668 mmHg 75%
    02:00 +16°C° 0 mm 1 m/S 668 mmHg 75%
    03:00 +16°C° 0 mm 1 m/S 668 mmHg 76%
    04:00 +16°C° 0 mm 1 m/S 668 mmHg 76%
    05:00 +18°C° 0 mm 1 m/S 668 mmHg 70%
    06:00 +20°C° 0 mm 1 m/S 669 mmHg 63%
    07:00 +22°C° 0 mm 1 m/S 670 mmHg 57%
    08:00 +24°C° 0.1 mm 1 m/S 670 mmHg 49%
    09:00 +26°C° 0.1 mm 1 m/S 671 mmHg 41%
    10:00 +29°C° 0.1 mm 1 m/S 671 mmHg 33%
    11:00 +28°C° 0 mm 1 m/S 671 mmHg 35%
    12:00 +27°C° 0 mm 1 m/S 670 mmHg 36%
    13:00 +27°C° 0 mm 1 m/S 670 mmHg 38%
    14:00 +26°C° 0.1 mm 1 m/S 670 mmHg 41%
    15:00 +25°C° 0.1 mm 1 m/S 669 mmHg 44%
    16:00 +25°C° 0.1 mm 1 m/S 669 mmHg 46%
    17:00 +23°C° 0 mm 1 m/S 669 mmHg 51%
    18:00 +22°C° 0 mm 1 m/S 668 mmHg 56%
    19:00 +20°C° 0 mm 1 m/S 668 mmHg 61%
    20:00 +20°C° 0 mm 1 m/S 668 mmHg 62%
    21:00 +19°C° 0 mm 1 m/S 668 mmHg 64%
    22:00 +19°C° 0 mm 1 m/S 668 mmHg 65%
    23:00 +18°C° 0 mm 1 m/S 668 mmHg 64%
    Mehr zeigen